Showing default

YIJIAN, 41899

Orbit data source: Space-Track

YIJIAN, 41899 is a payload satellite owned by SECM (CN) in SSO that was launched on Wed, 21 Dec 2016 UTC via a CHANG ZHENG 2D launch vehicle from the Jiuquan Satellite Launch Center, China (JSC). Payload-class satellites include a variety of spacecraft equipped with specific instruments for various scientific and technological missions. These include communications satellites like Starlink; space stations such as the ISS; scientific satellites like the Hubble; Earth observation satellites from companies like Planet Labs, Umbra, and HawkEye 360; GPS; miniature CubeSats for education and research; and military/defense satellites.

Loading next visibility...
Identifier
41899, 2016-081B
Orbit
SSO
Country
Flag of CNCN / PRC
Related business
Manufacturer
SECM
Mission
Operational Civil Imaging
Bus & Motor
CX-6, Unknown motor
Mass
60 kg wet, 60 kg dry
Launch date (UTC)
2016-12-21 (9 years ago)
Launch vehicle
CHANG ZHENG 2D
Launch site
Jiuquan Satellite Launch Center, China (JSC)
Object type
Payload
Rocket body
Debris
Shape & HBR
Box + 2 Pan, 0.5 m
Radar Cross Section
0.388 m², Medium (>0.1 m² and < 1m²)

Expand to show TLE details & history
Last TLE update: 5 hours ago

TLE from 5 hours ago
0 YIJIAN
1 41899U 16081B   25343.50956838  .00001462  00000-0  31139-3 0  9991
2 41899  98.5265 330.6969 0021001 172.3593 187.7930 14.60433668476900
Epoch: 2025-12-09T12:13Z
TLE epoch observation values (Epoch: 2025-12-09T12:13:46.708Z)
Latitude
-0.00003°
Longitude
68.75906°
Altitude
709.464 km
Speed
7.493 km/s
True Right ascension
22h 02m 47s
True Declination
0° 00' 00"
Sunlit
Object was in daylight at epoch
Visualization orbit readout
Latitude
Unknown
Longitude
Unknown
Altitude
Unknown
Speed
Unknown
Apparent Right ascension
Unknown
Apparent Declination
Unknown
Sunlit
N/A
Visualization observer readout
Local Sidereal Time
15:18:23
Azimuth
Unknown
Elevation
Unknown
Doppler factor
Unknown
Orbital elements
Apogee altitude
703.711 km
Perigee altitude
674.029 km
Semi-major axis
7,067.007 km
Eccentricity
0.0021
Inclination
98.5265°
RAAN
330.6969°
Arg. of periapsis
172.3593°
True anomaly
187.76045°
Mean anomaly
187.793°
Eccentric anomaly
187.77672°
Mean motion
3.65334 °/min
Orbital period
98.54 mins
BSTAR
0.00031139
Loading maneuver chart data...
Computing Atmospheric mass density...
Loading historical data...
Loading historical data...
Loading historical data...
Loading historical data...
Loading historical data...
Loading historical data...
Loading historical data...
Other satellites on launch #81 in the year 2016 (2016-12-21 UTC)

Documentation

Showing up to 5 results
|